| time (UTC) | temp F | wind direction | speed MPH | gust MPH | rain 1hr in | rain 24hr in | rain mn in | humidity % | barometer mb |
| 20260506164813 | 55 | 333 | 6.0 | 9.0 | 0.00 | 0.09 | 0.09 | 85 | 1031.3 |
| 20260506164310 | 55 | 0 | 4.0 | 11.0 | 0.00 | 0.09 | 0.09 | 86 | 1031.4 |
| 20260506163807 | 55 | 32 | 5.0 | 5.0 | 0.00 | 0.09 | 0.09 | 87 | 1031.3 |
| 20260506163302 | 54 | 356 | 3.0 | 7.0 | 0.00 | 0.09 | 0.09 | 87 | 1031.6 |
| 20260506162758 | 54 | 344 | 5.0 | 8.0 | 0.00 | 0.09 | 0.09 | 87 | 1031.8 |
| 20260506162256 | 54 | 1 | 5.0 | 7.0 | 0.00 | 0.09 | 0.09 | 86 | 1031.7 |
| 20260506161753 | 55 | 20 | 5.0 | 7.0 | 0.00 | 0.09 | 0.09 | 87 | 1031.4 |
| 20260506161250 | 54 | 45 | 2.0 | 8.0 | 0.00 | 0.09 | 0.09 | 86 | 1031.5 |
| 20260506160748 | 54 | 51 | 4.0 | 5.0 | 0.00 | 0.09 | 0.09 | 87 | 1031.6 |
| 20260506160244 | 55 | 311 | 4.0 | 6.0 | 0.02 | 0.09 | 0.09 | 87 | 1031.6 |
| 20260506155743 | 55 | 37 | 4.0 | 6.0 | 0.02 | 0.09 | 0.09 | 88 | 1031.4 |
| 20260506155239 | 55 | 334 | 1.0 | 5.0 | 0.00 | 0.09 | 0.09 | 88 | 1031.2 |
| 20260506153347 | 54 | 33 | 3.0 | 9.0 | 0.00 | 0.09 | 0.09 | 88 | 1030.5 |
| 20260506152843 | 54 | 8 | 6.0 | 6.0 | 0.00 | 0.09 | 0.09 | 90 | 1030.9 |
| 20260506152341 | 54 | 45 | 5.0 | 6.0 | 0.02 | 0.09 | 0.09 | 90 | 1031.1 |
| 20260506151839 | 53 | 24 | 4.0 | 7.0 | 0.05 | 0.09 | 0.09 | 91 | 1031.2 |
| 20260506151335 | 53 | 72 | 5.0 | 6.0 | 0.05 | 0.09 | 0.09 | 90 | 1031.6 |
| 20260506150833 | 53 | 37 | 3.0 | 4.0 | 0.02 | 0.08 | 0.08 | 90 | 1032.3 |
| 20260506150329 | 53 | 8 | 4.0 | 4.0 | 0.00 | 0.08 | 0.08 | 89 | 1032.5 |
| 20260506145826 | 53 | 17 | 2.0 | 3.0 | 0.12 | 0.08 | 0.08 | 89 | 1032.7 |
| 20260506145322 | 53 | 14 | 3.0 | 8.0 | 0.26 | 0.07 | 0.07 | 88 | 1031.6 |
| 20260506144820 | 53 | 7 | 7.0 | 9.0 | 0.28 | 0.06 | 0.06 | 86 | 1032.5 |
| 20260506144317 | 53 | 359 | 1.0 | 4.0 | 0.12 | 0.02 | 0.02 | 84 | 1033.6 |
| 20260506143815 | 53 | 20 | 2.0 | 8.0 | 0.02 | 0.01 | 0.01 | 83 | 1032.9 |
| 20260506143312 | 53 | 19 | 4.0 | 5.0 | 0.00 | 0.00 | 0.00 | 83 | 1032.5 |
| 20260506142810 | 53 | 51 | 1.0 | 4.0 | 0.00 | 0.00 | 0.00 | 83 | 1032.9 |
| 20260506142307 | 53 | 357 | 2.0 | 6.0 | 0.00 | 0.00 | 0.00 | 83 | 1033.3 |
| 20260506141806 | 53 | 16 | 4.0 | 7.0 | 0.00 | 0.00 | 0.00 | 83 | 1031.1 |
| 20260506141303 | 54 | 40 | 5.0 | 10.0 | 0.02 | 0.00 | 0.00 | 83 | 1030.7 |
| 20260506140801 | 54 | 78 | 3.0 | 11.0 | 0.02 | 0.00 | 0.00 | 83 | 1031.0 |
| 20260506140258 | 54 | 59 | 4.0 | 6.0 | 0.02 | 0.00 | 0.00 | 82 | 1031.4 |
| 20260506135755 | 54 | 332 | 5.0 | 8.0 | 0.00 | 0.00 | 0.00 | 81 | 1031.3 |
| 20260506135251 | 54 | 352 | 5.0 | 11.0 | 0.00 | 0.00 | 0.00 | 80 | 1031.9 |
| 20260506134748 | 54 | 328 | 4.0 | 6.0 | 0.00 | 0.00 | 0.00 | 80 | 1031.8 |
| 20260506134244 | 54 | 42 | 5.0 | 9.0 | 0.00 | 0.00 | 0.00 | 80 | 1031.5 |
| 20260506133741 | 54 | 3 | 4.0 | 5.0 | 0.00 | 0.00 | 0.00 | 80 | 1031.3 |
| 20260506133238 | 54 | 0 | 2.0 | 8.0 | 0.00 | 0.00 | 0.00 | 80 | 1030.9 |
| 20260506132735 | 54 | 8 | 6.0 | 13.0 | 0.00 | 0.00 | 0.00 | 79 | 1031.2 |
| 20260506132232 | 54 | 54 | 4.0 | 11.0 | 0.00 | 0.00 | 0.00 | 79 | 1030.8 |
| 20260506131730 | 54 | 341 | 3.0 | 10.0 | 0.00 | 0.00 | 0.00 | 80 | 1030.6 |
| 20260506131226 | 54 | 18 | 3.0 | 9.0 | 0.00 | 0.00 | 0.00 | 79 | 1030.6 |
| 20260506130723 | 55 | 339 | 3.0 | 10.0 | 0.00 | 0.00 | 0.00 | 78 | 1030.8 |
| 20260506130220 | 55 | 335 | 3.0 | 6.0 | 0.00 | 0.00 | 0.00 | 79 | 1030.5 |
| 20260506125718 | 55 | 14 | 6.0 | 9.0 | 0.00 | 0.00 | 0.00 | 78 | 1030.2 |
| 20260506125215 | 55 | 22 | 2.0 | 8.0 | 0.00 | 0.00 | 0.00 | 77 | 1030.0 |
| 20260506124713 | 55 | 27 | 4.0 | 9.0 | 0.00 | 0.00 | 0.00 | 76 | 1030.4 |
| 20260506124211 | 55 | 38 | 3.0 | 8.0 | 0.00 | 0.00 | 0.00 | 76 | 1030.1 |
| 20260506123708 | 55 | 11 | 3.0 | 8.0 | 0.00 | 0.00 | 0.00 | 75 | 1030.0 |
| 20260506123207 | 55 | 19 | 3.0 | 7.0 | 0.00 | 0.00 | 0.00 | 74 | 1029.7 |
| 20260506122703 | 56 | 9 | 4.0 | 7.0 | 0.00 | 0.00 | 0.00 | 74 | 1030.0 |
| 20260506122201 | 56 | 20 | 8.0 | 8.0 | 0.00 | 0.00 | 0.00 | 74 | 1030.0 |
| 20260506121658 | 56 | 335 | 6.0 | 10.0 | 0.00 | 0.00 | 0.00 | 74 | 1030.1 |
| 20260506121154 | 56 | 302 | 7.0 | 7.0 | 0.00 | 0.00 | 0.00 | 74 | 1029.5 |
| 20260506120653 | 56 | 354 | 3.0 | 5.0 | 0.00 | 0.00 | 0.00 | 74 | 1029.4 |
| 20260506120150 | 56 | 336 | 4.0 | 6.0 | 0.00 | 0.00 | 0.00 | 74 | 1029.5 |
| 20260506115648 | 57 | 343 | 4.0 | 7.0 | 0.00 | 0.00 | 0.00 | 74 | 1029.4 |
| 20260506115146 | 57 | 1 | 3.0 | 9.0 | 0.00 | 0.00 | 0.00 | 74 | 1029.4 |
| 20260506114643 | 57 | 323 | 4.0 | 5.0 | 0.00 | 0.00 | 0.00 | 74 | 1029.4 |
| 20260506114141 | 57 | 14 | 2.0 | 6.0 | 0.00 | 0.00 | 0.00 | 73 | 1029.5 |
| 20260506113639 | 57 | 1 | 3.0 | 6.0 | 0.00 | 0.00 | 0.00 | 73 | 1029.3 |
| 20260506113136 | 57 | 43 | 4.0 | 7.0 | 0.00 | 0.00 | 0.00 | 73 | 1029.2 |
| 20260506112632 | 57 | 354 | 5.0 | 12.0 | 0.00 | 0.00 | 0.00 | 72 | 1029.1 |
| 20260506112130 | 57 | 12 | 3.0 | 5.0 | 0.00 | 0.00 | 0.00 | 73 | 1029.2 |
| 20260506111627 | 57 | 73 | 5.0 | 6.0 | 0.00 | 0.00 | 0.00 | 73 | 1028.8 |
| 20260506111125 | 58 | 14 | 4.0 | 8.0 | 0.00 | 0.00 | 0.00 | 73 | 1028.8 |
| 20260506110622 | 58 | 24 | 3.0 | 9.0 | 0.00 | 0.00 | 0.00 | 74 | 1028.6 |
| 20260506110119 | 58 | 354 | 3.0 | 5.0 | 0.00 | 0.00 | 0.00 | 74 | 1028.5 |
| 20260506105616 | 58 | 14 | 3.0 | 6.0 | 0.00 | 0.00 | 0.00 | 74 | 1028.7 |
| 20260506105113 | 58 | 28 | 6.0 | 7.0 | 0.00 | 0.00 | 0.00 | 74 | 1028.6 |
| 20260506104611 | 58 | 359 | 2.0 | 8.0 | 0.00 | 0.00 | 0.00 | 74 | 1028.5 |
| 20260506104108 | 58 | 349 | 3.0 | 6.0 | 0.00 | 0.00 | 0.00 | 74 | 1028.4 |
| 20260506103605 | 58 | 348 | 3.0 | 9.0 | 0.00 | 0.00 | 0.00 | 73 | 1028.3 |
| 20260506103102 | 58 | 87 | 3.0 | 10.0 | 0.00 | 0.00 | 0.00 | 74 | 1028.2 |
| 20260506102600 | 58 | 20 | 3.0 | 10.0 | 0.00 | 0.00 | 0.00 | 74 | 1028.0 |
| 20260506102057 | 58 | 10 | 6.0 | 9.0 | 0.00 | 0.00 | 0.00 | 74 | 1027.7 |
| 20260506101554 | 58 | 12 | 3.0 | 8.0 | 0.00 | 0.00 | 0.00 | 74 | 1028.0 |
| 20260506101051 | 58 | 14 | 5.0 | 8.0 | 0.00 | 0.00 | 0.00 | 74 | 1027.6 |
| 20260506100549 | 58 | 52 | 2.0 | 8.0 | 0.00 | 0.00 | 0.00 | 74 | 1027.6 |
| 20260506100047 | 58 | 19 | 5.0 | 7.0 | 0.00 | 0.00 | 0.00 | 74 | 1027.8 |
| 20260506095546 | 58 | 16 | 6.0 | 8.0 | 0.00 | 0.00 | 0.00 | 74 | 1027.6 |
| 20260506095042 | 59 | 339 | 4.0 | 7.0 | 0.00 | 0.00 | 0.00 | 75 | 1027.5 |
| 20260506094539 | 59 | 356 | 3.0 | 6.0 | 0.00 | 0.00 | 0.00 | 75 | 1027.4 |
| 20260506094037 | 59 | 52 | 2.0 | 7.0 | 0.00 | 0.00 | 0.00 | 75 | 1027.3 |
| 20260506093536 | 59 | 17 | 3.0 | 5.0 | 0.00 | 0.00 | 0.00 | 74 | 1027.5 |
| 20260506093032 | 59 | 28 | 4.0 | 7.0 | 0.00 | 0.00 | 0.00 | 75 | 1027.5 |
| 20260506092530 | 59 | 31 | 2.0 | 8.0 | 0.00 | 0.00 | 0.00 | 74 | 1027.3 |
| 20260506092027 | 59 | 340 | 2.0 | 10.0 | 0.00 | 0.00 | 0.00 | 74 | 1027.6 |
| 20260506091525 | 59 | 3 | 6.0 | 6.0 | 0.00 | 0.00 | 0.00 | 74 | 1027.3 |
| 20260506091022 | 59 | 350 | 2.0 | 6.0 | 0.00 | 0.00 | 0.00 | 74 | 1027.3 |
| 20260506090520 | 59 | 14 | 4.0 | 7.0 | 0.00 | 0.00 | 0.00 | 75 | 1027.2 |
| 20260506090016 | 59 | 38 | 4.0 | 4.0 | 0.00 | 0.00 | 0.00 | 75 | 1027.5 |
| 20260506085513 | 60 | 22 | 6.0 | 8.0 | 0.00 | 0.00 | 0.00 | 75 | 1027.2 |
| 20260506085009 | 60 | 38 | 6.0 | 6.0 | 0.00 | 0.00 | 0.00 | 75 | 1027.3 |
| 20260506084506 | 60 | 7 | 2.0 | 5.0 | 0.00 | 0.00 | 0.00 | 75 | 1027.0 |
| 20260506084002 | 60 | 42 | 5.0 | 8.0 | 0.00 | 0.00 | 0.00 | 75 | 1027.2 |
| 20260506083500 | 60 | 6 | 2.0 | 7.0 | 0.00 | 0.00 | 0.00 | 75 | 1027.1 |
| 20260506082957 | 60 | 6 | 2.0 | 5.0 | 0.00 | 0.00 | 0.00 | 75 | 1027.0 |
| 20260506082454 | 60 | 34 | 2.0 | 6.0 | 0.00 | 0.00 | 0.00 | 75 | 1027.0 |
| 20260506081949 | 60 | 30 | 2.0 | 5.0 | 0.00 | 0.00 | 0.00 | 76 | 1026.9 |
| 20260506081448 | 61 | 25 | 2.0 | 7.0 | 0.00 | 0.00 | 0.00 | 75 | 1026.7 |
| 20260506080945 | 61 | 331 | 3.0 | 6.0 | 0.00 | 0.00 | 0.00 | 76 | 1026.8 |
| 20260506080442 | 61 | 8 | 4.0 | 8.0 | 0.00 | 0.00 | 0.00 | 76 | 1026.9 |
| 20260506073426 | 61 | 29 | 3.0 | 3.0 | 0.00 | 0.00 | 0.00 | 76 | 1026.7 |
| 20260506072923 | 61 | 60 | 2.0 | 7.0 | 0.00 | 0.00 | 0.00 | 76 | 1026.6 |
| 20260506072420 | 61 | 11 | 2.0 | 6.0 | 0.00 | 0.00 | 0.00 | 76 | 1026.6 |
| 20260506071918 | 61 | 25 | 4.0 | 6.0 | 0.00 | 0.00 | 0.00 | 76 | 1026.6 |
| 20260506071416 | 61 | 0 | 3.0 | 7.0 | 0.00 | 0.00 | 0.00 | 76 | 1026.6 |
| 20260506070912 | 62 | 42 | 1.0 | 7.0 | 0.00 | 0.00 | 0.00 | 76 | 1026.4 |
| 20260506070409 | 62 | 18 | 3.0 | 7.0 | 0.00 | 0.00 | 0.00 | 76 | 1026.4 |
| 20260506062347 | 62 | 311 | 3.0 | 5.0 | 0.00 | 0.00 | 0.00 | 77 | 1026.5 |
| 20260506061842 | 62 | 354 | 7.0 | 7.0 | 0.00 | 0.00 | 0.00 | 76 | 1026.3 |
| 20260506061339 | 62 | 341 | 4.0 | 6.0 | 0.00 | 0.00 | 0.00 | 76 | 1026.4 |
| 20260506060837 | 62 | 347 | 4.0 | 6.0 | 0.00 | 0.00 | 0.00 | 76 | 1026.5 |
| 20260506060335 | 63 | 18 | 4.0 | 6.0 | 0.00 | 0.00 | 0.00 | 76 | 1026.4 |
| 20260506051307 | 64 | 345 | 2.0 | 4.0 | 0.00 | 0.00 | 0.00 | 74 | 1026.4 |
| 20260506050805 | 64 | 1 | 3.0 | 4.0 | 0.00 | 0.00 | 0.00 | 74 | 1026.5 |
| 20260506050302 | 65 | 353 | 2.0 | 6.0 | 0.00 | 0.00 | 0.00 | 73 | 1026.6 |
| 20260506044752 | 65 | 35 | 4.0 | 7.0 | 0.00 | 0.00 | 0.00 | 73 | 1026.4 |
| 20260506044250 | 65 | 334 | 4.0 | 7.0 | 0.00 | 0.00 | 0.00 | 73 | 1026.3 |
| 20260506043747 | 66 | 328 | 5.0 | 6.0 | 0.00 | 0.00 | 0.00 | 73 | 1026.4 |
| 20260506043244 | 66 | 4 | 3.0 | 7.0 | 0.00 | 0.00 | 0.00 | 73 | 1026.4 |
| 20260506042743 | 66 | 28 | 3.0 | 6.0 | 0.00 | 0.00 | 0.00 | 73 | 1026.2 |
| 20260506042241 | 67 | 304 | 5.0 | 7.0 | 0.00 | 0.00 | 0.00 | 73 | 1026.5 |
| 20260506041739 | 67 | 43 | 2.0 | 6.0 | 0.00 | 0.00 | 0.00 | 72 | 1026.2 |
| 20260506041236 | 67 | 6 | 2.0 | 6.0 | 0.00 | 0.00 | 0.00 | 72 | 1026.4 |
| 20260506040733 | 67 | 8 | 2.0 | 7.0 | 0.00 | 0.00 | 0.00 | 71 | 1026.5 |
| 20260506040230 | 68 | 54 | 4.0 | 10.0 | 0.00 | 0.00 | 0.00 | 71 | 1026.2 |
| 20260506035727 | 68 | 45 | 7.0 | 8.0 | 0.00 | 0.00 | 0.00 | 71 | 1026.3 |
| 20260506035224 | 68 | 322 | 4.0 | 6.0 | 0.00 | 0.00 | 0.00 | 70 | 1026.3 |
| 20260506034721 | 68 | 26 | 3.0 | 9.0 | 0.00 | 0.00 | 0.00 | 70 | 1025.9 |
| 20260506034218 | 68 | 354 | 2.0 | 6.0 | 0.00 | 0.00 | 0.00 | 70 | 1025.7 |
| 20260506033715 | 68 | 22 | 3.0 | 4.0 | 0.00 | 0.00 | 0.00 | 69 | 1025.6 |
| 20260506033212 | 69 | 17 | 2.0 | 6.0 | 0.00 | 0.00 | 0.00 | 69 | 1025.6 |
| 20260506032709 | 69 | 15 | 5.0 | 8.0 | 0.00 | 0.00 | 0.00 | 69 | 1025.7 |
| 20260506032206 | 69 | 10 | 4.0 | 6.0 | 0.00 | 0.00 | 0.00 | 69 | 1025.5 |
| 20260506031703 | 69 | 6 | 1.0 | 8.0 | 0.00 | 0.00 | 0.00 | 69 | 1025.3 |
| 20260506031200 | 69 | 32 | 3.0 | 6.0 | 0.00 | 0.00 | 0.00 | 69 | 1025.1 |
| 20260506030658 | 69 | 29 | 6.0 | 8.0 | 0.00 | 0.00 | 0.00 | 69 | 1024.8 |
| 20260506030155 | 69 | 343 | 3.0 | 6.0 | 0.00 | 0.00 | 0.00 | 69 | 1024.9 |
| 20260506025652 | 70 | 35 | 4.0 | 5.0 | 0.00 | 0.00 | 0.00 | 68 | 1024.8 |
| 20260506025148 | 70 | 16 | 3.0 | 6.0 | 0.00 | 0.00 | 0.00 | 68 | 1024.6 |
| 20260506024646 | 70 | 29 | 2.0 | 4.0 | 0.00 | 0.00 | 0.00 | 68 | 1024.8 |
| 20260506024142 | 70 | 324 | 3.0 | 6.0 | 0.00 | 0.00 | 0.00 | 68 | 1024.8 |
| 20260506023638 | 70 | 316 | 4.0 | 6.0 | 0.00 | 0.00 | 0.00 | 68 | 1024.6 |
| 20260506023136 | 71 | 348 | 4.0 | 5.0 | 0.00 | 0.00 | 0.00 | 67 | 1024.4 |
| 20260506022633 | 71 | 12 | 5.0 | 6.0 | 0.00 | 0.00 | 0.00 | 67 | 1024.4 |
| 20260506022130 | 71 | 32 | 4.0 | 8.0 | 0.00 | 0.00 | 0.00 | 67 | 1024.4 |
| 20260506021628 | 72 | 49 | 4.0 | 8.0 | 0.00 | 0.00 | 0.00 | 67 | 1024.2 |
| 20260506021125 | 72 | 9 | 2.0 | 6.0 | 0.00 | 0.00 | 0.00 | 67 | 1024.2 |
| 20260506020622 | 72 | 321 | 3.0 | 6.0 | 0.00 | 0.00 | 0.00 | 67 | 1024.0 |
| 20260506020119 | 73 | 41 | 4.0 | 7.0 | 0.00 | 0.00 | 0.00 | 66 | 1023.9 |
| 20260506015617 | 73 | 36 | 5.0 | 6.0 | 0.00 | 0.00 | 0.00 | 66 | 1023.9 |
| 20260506015114 | 73 | 49 | 5.0 | 5.0 | 0.00 | 0.00 | 0.00 | 65 | 1023.6 |
| 20260506014611 | 73 | 2 | 3.0 | 9.0 | 0.00 | 0.00 | 0.00 | 65 | 1023.2 |
| 20260506014106 | 74 | 346 | 4.0 | 6.0 | 0.00 | 0.00 | 0.00 | 64 | 1023.3 |
| 20260506013605 | 74 | 23 | 4.0 | 6.0 | 0.00 | 0.00 | 0.00 | 65 | 1023.2 |
| 20260506013102 | 74 | 10 | 2.0 | 11.0 | 0.00 | 0.00 | 0.00 | 65 | 1022.9 |
| 20260506012558 | 74 | 330 | 3.0 | 9.0 | 0.00 | 0.00 | 0.00 | 65 | 1022.8 |
| 20260506012054 | 74 | 34 | 3.0 | 4.0 | 0.00 | 0.00 | 0.00 | 65 | 1022.7 |
| 20260506011552 | 74 | 359 | 2.0 | 6.0 | 0.00 | 0.00 | 0.00 | 65 | 1022.3 |
| 20260506011048 | 75 | 336 | 1.0 | 5.0 | 0.00 | 0.00 | 0.00 | 64 | 1022.2 |
| 20260506010548 | 75 | 327 | 2.0 | 8.0 | 0.00 | 0.00 | 0.00 | 64 | 1022.5 |
| 20260506010044 | 75 | 343 | 2.0 | 4.0 | 0.00 | 0.00 | 0.00 | 64 | 1022.4 |
| 20260506005541 | 75 | 3 | 2.0 | 5.0 | 0.00 | 0.00 | 0.00 | 63 | 1022.3 |
| 20260506005037 | 76 | 77 | 3.0 | 6.0 | 0.00 | 0.00 | 0.00 | 63 | 1022.4 |
| 20260506004535 | 76 | 14 | 2.0 | 4.0 | 0.00 | 0.00 | 0.00 | 62 | 1022.4 |
| 20260506004031 | 76 | 27 | 4.0 | 6.0 | 0.00 | 0.00 | 0.00 | 62 | 1022.3 |
| 20260506003528 | 77 | 1 | 2.0 | 5.0 | 0.00 | 0.00 | 0.00 | 61 | 1022.1 |
| 20260506003024 | 77 | 19 | 3.0 | 5.0 | 0.00 | 0.00 | 0.00 | 61 | 1021.9 |
| 20260506002520 | 77 | 351 | 3.0 | 5.0 | 0.00 | 0.00 | 0.00 | 60 | 1021.9 |
| 20260506002016 | 77 | 330 | 5.0 | 5.0 | 0.00 | 0.00 | 0.00 | 59 | 1022.0 |
| 20260506001512 | 78 | 356 | 3.0 | 6.0 | 0.00 | 0.00 | 0.00 | 59 | 1021.9 |
| 20260506001010 | 78 | 33 | 6.0 | 8.0 | 0.00 | 0.00 | 0.00 | 58 | 1021.9 |
| 20260506000507 | 78 | 26 | 2.0 | 6.0 | 0.00 | 0.00 | 0.00 | 58 | 1022.0 |
| 20260506000004 | 79 | 26 | 3.0 | 7.0 | 0.00 | 0.00 | 0.00 | 57 | 1022.0 |
| 20260505235502 | 79 | 25 | 2.0 | 8.0 | 0.00 | 0.00 | 0.00 | 57 | 1022.0 |
| 20260505234958 | 80 | 24 | 6.0 | 6.0 | 0.00 | 0.00 | 0.00 | 58 | 1021.6 |
| 20260505234456 | 80 | 49 | 2.0 | 6.0 | 0.00 | 0.00 | 0.00 | 56 | 1021.5 |
| 20260505233952 | 80 | 10 | 7.0 | 9.0 | 0.00 | 0.00 | 0.00 | 56 | 1021.6 |
| 20260505233450 | 81 | 21 | 2.0 | 6.0 | 0.00 | 0.00 | 0.00 | 58 | 1021.3 |
| 20260505232947 | 81 | 5 | 2.0 | 5.0 | 0.00 | 0.00 | 0.00 | 57 | 1021.3 |
| 20260505232445 | 82 | 17 | 4.0 | 6.0 | 0.00 | 0.00 | 0.00 | 56 | 1021.3 |
| 20260505231942 | 82 | 29 | 8.0 | 11.0 | 0.00 | 0.00 | 0.00 | 56 | 1021.2 |
| 20260505231439 | 83 | 65 | 2.0 | 7.0 | 0.00 | 0.00 | 0.00 | 57 | 1021.0 |
| 20260505230937 | 84 | 3 | 2.0 | 8.0 | 0.00 | 0.00 | 0.00 | 56 | 1020.9 |
| 20260505230435 | 85 | 9 | 2.0 | 7.0 | 0.00 | 0.00 | 0.00 | 55 | 1021.0 |
| 20260505225931 | 86 | 336 | 2.0 | 6.0 | 0.00 | 0.00 | 0.00 | 52 | 1020.7 |
| 20260505225428 | 86 | 358 | 2.0 | 6.0 | 0.00 | 0.00 | 0.00 | 49 | 1020.8 |
| 20260505224924 | 87 | 19 | 2.0 | 4.0 | 0.00 | 0.00 | 0.00 | 46 | 1020.8 |
| 20260505224421 | 88 | 353 | 2.0 | 4.0 | 0.00 | 0.00 | 0.00 | 45 | 1020.6 |
| 20260505223918 | 89 | 340 | 3.0 | 6.0 | 0.00 | 0.00 | 0.00 | 45 | 1020.5 |
| 20260505223415 | 89 | 1 | 4.0 | 6.0 | 0.00 | 0.00 | 0.00 | 46 | 1020.6 |
| 20260505222911 | 90 | 43 | 1.0 | 5.0 | 0.00 | 0.00 | 0.00 | 45 | 1020.5 |
| 20260505222408 | 91 | 27 | 5.0 | 6.0 | 0.00 | 0.00 | 0.00 | 43 | 1020.5 |
| 20260505221904 | 93 | 2 | 2.0 | 3.0 | 0.00 | 0.00 | 0.00 | 43 | 1020.3 |
| 20260505221401 | 93 | 0 | 2.0 | 4.0 | 0.00 | 0.00 | 0.00 | 44 | 1020.4 |
| 20260505220858 | 92 | 26 | 2.0 | 3.0 | 0.00 | 0.00 | 0.00 | 44 | 1020.2 |
| 20260505220355 | 92 | 356 | 2.0 | 4.0 | 0.00 | 0.00 | 0.00 | 43 | 1020.2 |
| 20260505215853 | 92 | 356 | 2.0 | 3.0 | 0.00 | 0.00 | 0.00 | 44 | 1020.1 |
| 20260505215351 | 92 | 12 | 2.0 | 3.0 | 0.00 | 0.00 | 0.00 | 44 | 1020.3 |
| 20260505214849 | 92 | 20 | 1.0 | 3.0 | 0.00 | 0.00 | 0.00 | 43 | 1020.2 |
| 20260505214346 | 92 | 330 | 2.0 | 3.0 | 0.00 | 0.00 | 0.00 | 41 | 1020.1 |
| 20260505213843 | 92 | 6 | 2.0 | 3.0 | 0.00 | 0.00 | 0.00 | 43 | 1020.2 |
| 20260505213341 | 93 | 334 | 2.0 | 4.0 | 0.00 | 0.00 | 0.00 | 41 | 1020.3 |
| 20260505212837 | 94 | 318 | 3.0 | 3.0 | 0.00 | 0.00 | 0.00 | 42 | 1020.3 |
| 20260505212334 | 93 | 338 | 2.0 | 5.0 | 0.00 | 0.00 | 0.00 | 41 | 1020.4 |
| 20260505211830 | 94 | 5 | 3.0 | 5.0 | 0.00 | 0.00 | 0.00 | 40 | 1020.3 |
| 20260505211328 | 94 | 310 | 3.0 | 3.0 | 0.00 | 0.00 | 0.00 | 44 | 1020.4 |
| 20260505210824 | 94 | 139 | 0.0 | 2.0 | 0.00 | 0.00 | 0.00 | 46 | 1020.4 |
| 20260505210321 | 94 | 50 | 1.0 | 2.0 | 0.00 | 0.00 | 0.00 | 47 | 1020.7 |
| 20260505205818 | 94 | 19 | 1.0 | 2.0 | 0.00 | 0.00 | 0.00 | 42 | 1020.6 |
| 20260505205316 | 94 | 23 | 1.0 | 4.0 | 0.00 | 0.00 | 0.00 | 46 | 1020.9 |
| 20260505204812 | 94 | 23 | 1.0 | 2.0 | 0.00 | 0.00 | 0.00 | 46 | 1020.9 |
| 20260505204311 | 94 | 50 | 2.0 | 2.0 | 0.00 | 0.00 | 0.00 | 45 | 1020.9 |
| 20260505203808 | 95 | 317 | 3.0 | 4.0 | 0.00 | 0.00 | 0.00 | 43 | 1021.0 |
| 20260505203304 | 94 | 16 | 2.0 | 2.0 | 0.00 | 0.00 | 0.00 | 44 | 1020.7 |
| 20260505202800 | 94 | 117 | 1.0 | 3.0 | 0.00 | 0.00 | 0.00 | 44 | 1020.9 |
| 20260505202256 | 93 | 61 | 1.0 | 3.0 | 0.00 | 0.00 | 0.00 | 47 | 1021.0 |
| 20260505201753 | 92 | 9 | 2.0 | 3.0 | 0.00 | 0.00 | 0.00 | 49 | 1021.0 |
| 20260505201251 | 92 | 14 | 3.0 | 3.0 | 0.00 | 0.00 | 0.00 | 48 | 1021.2 |
| 20260505200749 | 92 | 126 | 0.0 | 3.0 | 0.00 | 0.00 | 0.00 | 48 | 1021.2 |
| 20260505200246 | 92 | 128 | 0.0 | 6.0 | 0.00 | 0.00 | 0.00 | 47 | 1021.2 |
| 20260505195741 | 92 | 29 | 0.0 | 5.0 | 0.00 | 0.00 | 0.00 | 46 | 1021.2 |
| 20260505195239 | 92 | 28 | 0.0 | 5.0 | 0.00 | 0.00 | 0.00 | 47 | 1021.3 |
| 20260505194736 | 93 | 345 | 3.0 | 3.0 | 0.00 | 0.00 | 0.00 | 47 | 1021.4 |
| 20260505194232 | 92 | 1 | 2.0 | 4.0 | 0.00 | 0.00 | 0.00 | 49 | 1021.6 |
| 20260505193728 | 92 | 0 | 1.0 | 4.0 | 0.00 | 0.00 | 0.00 | 50 | 1021.5 |
| 20260505193226 | 91 | 49 | 2.0 | 3.0 | 0.00 | 0.00 | 0.00 | 54 | 1021.4 |
| 20260505192724 | 91 | 145 | 0.0 | 3.0 | 0.00 | 0.00 | 0.00 | 53 | 1021.7 |
| 20260505192221 | 91 | 145 | 0.0 | 3.0 | 0.00 | 0.00 | 0.00 | 55 | 1021.5 |
| 20260505191719 | 90 | 33 | 0.0 | 2.0 | 0.00 | 0.00 | 0.00 | 56 | 1021.6 |
| 20260505191218 | 90 | 273 | 2.0 | 3.0 | 0.00 | 0.00 | 0.00 | 57 | 1021.6 |
| 20260505190714 | 90 | 66 | 0.0 | 4.0 | 0.00 | 0.00 | 0.00 | 55 | 1021.3 |
| 20260505190213 | 90 | 185 | 2.0 | 4.0 | 0.00 | 0.00 | 0.00 | 55 | 1021.2 |
| 20260505185710 | 89 | 287 | 2.0 | 4.0 | 0.00 | 0.00 | 0.00 | 55 | 1021.4 |
| 20260505185207 | 89 | 121 | 2.0 | 5.0 | 0.00 | 0.00 | 0.00 | 57 | 1021.6 |
| 20260505184703 | 89 | 21 | 1.0 | 2.0 | 0.00 | 0.00 | 0.00 | 63 | 1021.4 |
| 20260505184200 | 89 | 142 | 2.0 | 3.0 | 0.00 | 0.00 | 0.00 | 58 | 1021.7 |
| 20260505183657 | 89 | 57 | 2.0 | 4.0 | 0.00 | 0.00 | 0.00 | 59 | 1021.7 |
| 20260505183155 | 89 | 53 | 2.0 | 3.0 | 0.00 | 0.00 | 0.00 | 61 | 1021.7 |
| 20260505182650 | 88 | 12 | 2.0 | 5.0 | 0.00 | 0.00 | 0.00 | 61 | 1021.8 |
| 20260505182148 | 88 | 352 | 2.0 | 4.0 | 0.00 | 0.00 | 0.00 | 60 | 1021.8 |
| 20260505181644 | 88 | 57 | 2.0 | 4.0 | 0.00 | 0.00 | 0.00 | 62 | 1022.0 |
| 20260505181142 | 87 | 353 | 2.0 | 5.0 | 0.00 | 0.00 | 0.00 | 61 | 1021.8 |
| 20260505180638 | 87 | 349 | 1.0 | 5.0 | 0.00 | 0.00 | 0.00 | 63 | 1021.9 |
| 20260505180135 | 86 | 133 | 2.0 | 4.0 | 0.00 | 0.00 | 0.00 | 63 | 1022.1 |
| 20260505175631 | 86 | 19 | 2.0 | 4.0 | 0.00 | 0.00 | 0.00 | 64 | 1022.0 |
| 20260505175128 | 86 | 326 | 2.0 | 3.0 | 0.00 | 0.00 | 0.00 | 65 | 1021.8 |
| 20260505174624 | 86 | 222 | 2.0 | 4.0 | 0.00 | 0.00 | 0.00 | 63 | 1022.0 |
| 20260505174120 | 85 | 135 | 0.0 | 3.0 | 0.00 | 0.00 | 0.00 | 64 | 1022.1 |
| 20260505173617 | 85 | 183 | 1.0 | 4.0 | 0.00 | 0.00 | 0.00 | 65 | 1022.0 |
| 20260505173114 | 84 | 36 | 2.0 | 4.0 | 0.00 | 0.00 | 0.00 | 65 | 1022.0 |
| 20260505172612 | 84 | 20 | 0.0 | 4.0 | 0.00 | 0.00 | 0.00 | 66 | 1022.3 |
| 20260505172108 | 84 | 298 | 2.0 | 4.0 | 0.00 | 0.00 | 0.00 | 67 | 1022.1 |
| 20260505171603 | 83 | 198 | 0.0 | 5.0 | 0.00 | 0.00 | 0.00 | 67 | 1022.1 |
| 20260505171100 | 82 | 69 | 2.0 | 3.0 | 0.00 | 0.00 | 0.00 | 68 | 1022.3 |
| 20260505170557 | 82 | 320 | 2.0 | 2.0 | 0.00 | 0.00 | 0.00 | 69 | 1022.2 |
| 20260505170053 | 82 | 123 | 1.0 | 3.0 | 0.00 | 0.00 | 0.00 | 68 | 1022.3 |
| 20260505165548 | 82 | 308 | 3.0 | 4.0 | 0.00 | 0.00 | 0.00 | 68 | 1022.2 |